Flag for Germany Weather past 2 weeks in Springe, Lower Saxony, Germany

Now
57 °F

Passing clouds.


Feels Like: 57 °F
Forecast: 57 / 82 °F
Wind: 2 mph from North

Location: Wunstorf Airport

Current Time: Jun 30, 2015 at 6:28:07 AM

Latest Report: Jun 30, 2015 at 5:20 AM


Visibility: N/A

Pressure: 30.18 "Hg

Humidity: 77%

Dew point: 50 °F

Location of SpringeLocation

Historic Weather in Springe — Graph

°F

Springe temperature yesterday

Maximum temperature yesterday: 79 °F (at 4:20 PM)
Minimum temperature yesterday: 59 °F (at 1:20 AM)
Average temperature yesterday: 68 °F

Past Weeks' High & Low Weather Summary

 TemperatureHumidityPressure
High79 °F (Jun 29, 4:20 PM)100% (Jun 18, 3:20 AM)30.30 "Hg (Jun 18, 3:20 AM)
Low39 °F (Jun 17, 4:20 AM)32% (Jun 15, 3:20 PM)29.65 "Hg (Jun 22, 9:20 PM)
Average59 °F71%30.04 "Hg
* Reported Jun 15 4:20 AM — Jun 30 4:20 AM, Springe, Weather by CustomWeather, © 2015

Note: Actual official high and low records may vary slightly from our data, if they occured in-between our weather recording intervals... More about our weather records

Advertising

Springe weather history for previous 24 hours

 ConditionsComfort  
Time TempWeatherWind HumidityBarometerVisibility
4:20 AM
Tue, Jun 30
57 °FCool.3 mph77%30.18 "Hg4 mi
3:20 AM59 °FCool.2 mph77%30.18 "Hg4 mi
2:20 AM61 °FCool.5 mph72%30.18 "Hg4 mi
1:20 AM63 °FMild.6 mph73%30.18 "Hg4 mi
12:20 AM64 °FMild.6 mph73%30.18 "Hg4 mi
11:20 PM
Mon, Jun 29
64 °FMild.7 mph73%30.18 "Hg4 mi
10:20 PM66 °FMild.8 mph68%30.18 "Hg4 mi
9:20 PM70 °FMild.10 mph60%30.15 "Hg4 mi
8:20 PM73 °FMild.7 mph47%30.12 "Hg5 mi
7:20 PM75 °FPartly sunny.8 mph44%30.12 "HgN/A
6:20 PM77 °FPartly sunny.10 mph42%30.12 "HgN/A
5:20 PM77 °FScattered clouds.12 mph42%30.12 "HgN/A
4:20 PM79 °FScattered clouds.14 mph39%30.12 "HgN/A
3:20 PM77 °FScattered clouds.14 mph42%30.12 "HgN/A
2:20 PM77 °FScattered clouds.13 mph42%30.12 "HgN/A
1:20 PM75 °FScattered clouds.10 mph47%30.12 "HgN/A
12:20 PM75 °FScattered clouds.10 mph50%30.12 "HgN/A
11:20 AM72 °FScattered clouds.8 mph53%30.12 "HgN/A
10:20 AM70 °FScattered clouds.7 mph57%30.09 "HgN/A
9:20 AM70 °FPassing clouds.7 mph60%30.09 "HgN/A
8:20 AM66 °FPassing clouds.6 mph68%30.09 "HgN/A
7:20 AM63 °FScattered clouds.3 mph77%30.09 "HgN/A
6:20 AM59 °FScattered clouds.3 mph88%30.09 "HgN/A
Weather by CustomWeather, © 2015

See weather overviewHow to use our weather pages